Home   Weather   Port Elizabeth   Past weeks

Flag for South Africa Past Weather in Port Elizabeth, South Africa — Yesterday and Last 2 Weeks

Now
61 °F

Passing clouds.


Feels Like: 61 °F
Forecast: 54 / 86 °F
Wind: 18 mph from East

Location: Port Elizabeth Airport

Current Time: Sep 25, 2016 at 9:06:33 PM

Latest Report: Sep 25, 2016 at 8:00 PM


Visibility: N/A

Pressure: 30.07 "Hg

Humidity: 77%

Dew Point: 54 °F

Location of Port ElizabethLocation

Past Weather in Port Elizabeth — Graph

°F

Port Elizabeth Temperature Yesterday

Maximum temperature yesterday: 68 °F (at 1:00 PM)
Minimum temperature yesterday: 46 °F (at 4:00 AM)
Average temperature yesterday: 59 °F

High & Low Weather Summary for the Past Weeks

 TemperatureHumidityPressure
High73 °F (Sep 15, 11:00 AM)100% (Sep 18, 3:00 AM)30.57 "Hg (Sep 18, 3:00 AM)
Low43 °F (Sep 18, 5:00 AM)45% (Sep 23, 10:00 AM)29.62 "Hg (Sep 15, 6:00 PM)
Average60 °F76%30.11 "Hg
* Reported Sep 10 8:00 PM — Sep 25 8:00 PM, Port Elizabeth, Weather by CustomWeather, © 2016

Note: Actual official high and low records may vary slightly from our data, if they occured in-between our weather recording intervals... More about our weather records

Advertising

Port Elizabeth Weather History for the Previous 24 Hours

Scroll right to see more
 ConditionsComfort  
Time TempWeatherWind HumidityBarometerVisibility
8:00 PM
Sun, Sep 25
61 °FPassing clouds.18 mph77%30.07 "HgN/A
7:00 PM61 °FPassing clouds.18 mph77%30.07 "HgN/A
6:00 PM63 °FPassing clouds.21 mph73%30.07 "HgN/A
5:00 PM63 °FPassing clouds.22 mph73%30.07 "HgN/A
4:00 PM64 °FScattered clouds.21 mph73%30.09 "HgN/A
3:00 PM66 °FPartly sunny.16 mph73%30.09 "HgN/A
2:00 PM64 °FPartly sunny.17 mph73%30.12 "HgN/A
1:45 PM66 °FPartly sunny.17 mph68%30.12 "HgN/A
1:00 PM66 °FPassing clouds.14 mph68%30.15 "HgN/A
12:00 PM66 °FScattered clouds.12 mph73%30.18 "HgN/A
11:00 AM64 °FPartly sunny.12 mph78%30.18 "HgN/A
10:00 AM64 °FPartly sunny.6 mph73%30.21 "HgN/A
9:00 AM64 °FScattered clouds.6 mph68%30.21 "HgN/A
8:00 AM59 °FPartly sunny.5 mph94%30.21 "HgN/A
7:00 AM57 °FPartly sunny.9 mph94%30.18 "HgN/A
6:00 AM57 °FPassing clouds.5 mph94%30.18 "HgN/A
5:00 AM59 °FPassing clouds.8 mph82%30.18 "Hg6 mi
4:00 AM57 °FPassing clouds.7 mph82%30.18 "HgN/A
3:00 AM59 °FPassing clouds.13 mph82%30.15 "HgN/A
2:00 AM59 °FPassing clouds.14 mph82%30.18 "HgN/A
1:00 AM59 °FPassing clouds.16 mph82%30.15 "HgN/A
12:00 AM59 °FPassing clouds.16 mph82%30.18 "HgN/A
9:00 PM
Sat, Sep 24
63 °FPassing clouds.20 mph77%30.15 "HgN/A
Weather by CustomWeather, © 2016

See weather overviewHow to use our weather pages